KM5HG-3 Weather Reports


Display with metric or nautical units.
time (UTC)temp
F
wind
direction
speed
MPH
gust
MPH
rain 1hr
in
rain 24hr
in
rain mn
in
humidity
%
barometer
mb
20170627122034 72 0 0.0 0.0 4.11 0.00 0.00
20170627121548 75 0 0.0 0.0 4.11 0.00 0.00
20170627121035 77 0 0.0 0.0 4.11 0.00 0.00
20170627120539 76 0 0.0 0.0 4.11 0.00 0.00
20170627120035 72 0 0.0 0.0 4.11 0.00 0.00
20170627115546 68 0 0.0 0.0 4.11 0.00 0.00
20170627115056 65 0 0.0 0.0 4.11 0.00 0.00
20170627114537 63 0 0.0 0.0 4.11 0.00 0.00
20170627114047 62 0 0.0 0.0 4.11 0.00 0.00
20170627113535 63 0 0.0 0.0 4.11 0.00 0.00
20170627113035 62 0 0.0 0.0 4.11 0.00 0.00
20170627112536 62 0 0.0 0.0 4.11 0.00 0.00
20170627112034 62 0 0.0 0.0 4.11 0.00 0.00
20170627111535 62 0 0.0 0.0 4.11 0.00 0.00
20170627111039 61 0 0.0 0.0 4.11 0.00 0.00
20170627110545 61 0 0.0 0.0 4.11 0.00 0.00
20170627110041 61 0 0.0 0.0 4.11 0.00 0.00
20170627105536 61 0 0.0 0.0 4.11 0.00 0.00
20170627105037 61 0 0.0 0.0 4.11 0.00 0.00
20170627104538 61 0 0.0 0.0 4.11 0.00 0.00
20170627104046 61 0 0.0 0.0 4.11 0.00 0.00
20170627103542 61 0 0.0 0.0 4.11 0.00 0.00
20170627103039 61 0 0.0 0.0 4.11 0.00 0.00
20170627102547 61 0 0.0 0.0 4.11 0.00 0.00
20170627102038 62 0 0.0 0.0 4.11 0.00 0.00
20170627101537 62 0 0.0 0.0 4.11 0.00 0.00
20170627101036 62 0 0.0 0.0 4.11 0.00 0.00
20170627100036 62 0 0.0 0.0 4.11 0.00 0.00
20170627095536 62 0 0.0 0.0 4.11 0.00 0.00
20170627095036 62 0 0.0 0.0 4.11 0.00 0.00
20170627094536 63 0 0.0 0.0 4.11 0.00 0.00
20170627094046 62 0 0.0 0.0 4.11 0.00 0.00
20170627093536 63 0 0.0 0.0 4.11 0.00 0.00
20170627093036 63 0 0.0 0.0 4.11 0.00 0.00
20170627092536 62 0 0.0 0.0 4.11 0.00 0.00
20170627092036 63 0 0.0 0.0 4.11 0.00 0.00
20170627091548 63 0 0.0 0.0 4.11 0.00 0.00
20170627091036 64 0 0.0 0.0 4.11 0.00 0.00
20170627090536 63 0 0.0 0.0 4.11 0.00 0.00
20170627090036 63 0 0.0 0.0 4.11 0.00 0.00
20170627085536 64 326 1.0 2.0 4.11 0.00 0.00
20170627085036 64 0 0.0 0.0 4.11 0.00 0.00
20170627084536 63 0 0.0 0.0 4.11 0.00 0.00
20170627084036 64 0 0.0 0.0 4.11 0.00 0.00
20170627083536 63 0 0.0 0.0 4.11 0.00 0.00
20170627083036 63 0 0.0 0.0 4.11 0.00 0.00
20170627082538 64 0 0.0 0.0 4.11 0.00 0.00
20170627082036 63 0 0.0 0.0 4.11 0.00 0.00
20170627081545 63 0 0.0 0.0 4.11 0.00 0.00
20170627081037 63 0 0.0 0.0 4.11 0.00 0.00
20170627080538 63 0 0.0 0.0 4.11 0.00 0.00
20170627080036 64 0 0.0 0.0 4.11 0.00 0.00
20170627075536 63 0 0.0 0.0 4.11 0.00 0.00
20170627075036 64 0 0.0 0.0 4.11 0.00 0.00
20170627074536 64 0 0.0 0.0 4.11 0.00 0.00
20170627074036 64 0 0.0 0.0 4.11 0.00 0.00
20170627073537 65 0 0.0 0.0 4.11 0.00 0.00
20170627073036 66 0 0.0 0.0 4.11 0.00 0.00
20170627072536 66 0 0.0 0.0 4.11 0.00 0.00
20170627072036 65 0 0.0 0.0 4.11 0.00 0.00
20170627071536 66 0 0.0 0.0 4.11 0.00 0.00
20170627071036 66 0 0.0 0.0 4.11 0.00 0.00
20170627070536 66 0 0.0 0.0 4.11 0.00 0.00
20170627070035 65 0 0.0 0.0 4.11 0.00 0.00
20170627065535 66 0 0.0 0.0 4.11 0.00 0.00
20170627065035 66 0 0.0 0.0 4.11 0.00 0.00
20170627064535 66 0 0.0 0.0 4.11 0.00 0.00
20170627064036 67 0 0.0 0.0 4.11 0.00 0.00
20170627063536 67 0 0.0 0.0 4.11 0.00 0.00
20170627063035 67 0 0.0 0.0 4.11 0.00 0.00
20170627062535 66 0 0.0 0.0 4.11 0.00 0.00
20170627062037 66 0 0.0 0.0 4.11 0.00 0.00
20170627061535 67 0 0.0 0.0 4.11 0.00 0.00
20170627061035 68 0 0.0 0.0 4.11 0.00 0.00
20170627060535 68 0 0.0 0.0 4.11 0.00 0.00
20170627060036 68 229 1.0 2.0 4.11 0.00 0.00
20170627055535 68 245 1.0 2.0 4.11 0.00 0.00
20170627055035 69 0 0.0 0.0 4.11 0.00 0.00
20170627054535 69 0 0.0 0.0 4.11 0.00 0.00
20170627054035 68 0 0.0 0.0 4.11 0.00 0.00
20170627053535 68 0 0.0 0.0 4.11 0.00 0.00
20170627053035 68 0 0.0 0.0 4.11 0.00 0.00
20170627052535 68 0 0.0 0.0 4.11 0.00 0.00
20170627052035 67 0 0.0 0.0 4.11 0.00 0.00
20170627051536 67 0 0.0 0.0 4.11 0.00 0.00
20170627051043 67 0 0.0 0.0 4.11 0.00 0.00
20170627050535 68 0 0.0 0.0 4.11 0.00 0.00
20170627050035 68 0 0.0 0.0 4.11 0.00 0.00
20170627045545 68 0 0.0 0.0 4.11 0.00 0.00
20170627045035 69 0 0.0 0.0 4.11 0.00 0.00
20170627044535 69 0 0.0 0.0 4.11 0.00 0.00
20170627044035 69 0 0.0 0.0 4.11 0.00 0.00
20170627043035 69 0 0.0 0.0 4.11 0.00 0.00
20170627042535 69 0 0.0 0.0 4.11 0.00 0.00
20170627042035 68 0 0.0 0.0 4.11 0.00 0.00
20170627041547 68 0 0.0 0.0 4.11 0.00 0.00
20170627041035 68 0 0.0 0.0 4.11 0.00 0.00
20170627040535 69 0 0.0 0.0 4.11 0.00 0.00
20170627040047 70 0 0.0 0.0 4.11 0.00 0.00
20170627035535 70 0 0.0 0.0 4.11 0.00 0.00
20170627034551 70 0 0.0 0.0 4.11 0.00 0.00
20170627034035 71 0 0.0 0.0 4.11 0.00 0.00
20170627033535 72 0 0.0 0.0 4.11 0.00 0.00
20170627033035 71 0 0.0 0.0 4.11 0.00 0.00
20170627032535 72 0 0.0 0.0 4.11 0.00 0.00
20170627032044 71 0 0.0 0.0 4.11 0.00 0.00
20170627031535 72 0 0.0 0.0 4.11 0.00 0.00
20170627031035 71 0 0.0 0.0 4.11 0.00 0.00
20170627030535 72 0 0.0 0.0 4.11 0.00 0.00
20170627030035 72 0 0.0 0.0 4.11 0.00 0.00
20170627025535 72 0 0.0 0.0 4.11 0.00 0.00
20170627025035 73 0 0.0 0.0 4.11 0.00 0.00
20170627024535 73 165 0.0 1.0 4.11 0.00 0.00
20170627024038 73 177 1.0 2.0 4.11 0.00 0.00
20170627023535 74 138 0.0 1.0 4.11 0.00 0.00
20170627023035 74 145 1.0 2.0 4.11 0.00 0.00
20170627022536 74 0 0.0 0.0 4.11 0.00 0.00
20170627022035 75 155 0.0 3.0 4.11 0.00 0.00
20170627021535 75 170 2.0 3.0 4.11 0.00 0.00
20170627021035 74 163 2.0 3.0 4.11 0.00 0.00
20170627020535 75 167 2.0 4.0 4.11 0.00 0.00
20170627020036 76 134 3.0 5.0 4.11 0.00 0.00
20170627015535 76 149 2.0 4.0 4.11 0.00 0.00
20170627015040 76 115 0.0 3.0 4.11 0.00 0.00
20170627014535 78 139 2.0 5.0 4.11 0.00 0.00
20170627014035 78 142 2.0 4.0 4.11 0.00 0.00
20170627013035 79 136 2.0 3.0 4.11 0.00 0.00
20170627012535 80 138 3.0 4.0 4.11 0.00 0.00
20170627012035 81 128 3.0 5.0 4.11 0.00 0.00
20170627011540 82 149 2.0 4.0 4.11 0.00 0.00
20170627011035 83 138 3.0 4.0 4.11 0.00 0.00
20170627010535 83 141 4.0 6.0 4.11 0.00 0.00
20170627010035 83 142 3.0 6.0 4.11 0.00 0.00
20170627005535 84 142 4.0 6.0 4.11 0.00 0.00
20170627005035 84 142 4.0 7.0 4.11 0.00 0.00
20170627004535 85 143 4.0 7.0 4.11 0.00 0.00
20170627004035 86 125 4.0 7.0 4.11 0.00 0.00
20170627003537 86 145 5.0 7.0 4.11 0.00 0.00
20170627003035 86 143 5.0 7.0 4.11 0.00 0.00
20170627002535 86 156 5.0 8.0 4.11 0.00 0.00
20170627002037 86 150 5.0 8.0 4.11 0.00 0.00
20170627001535 87 146 5.0 8.0 4.11 0.00 0.00
20170627001035 87 163 6.0 9.0 4.11 0.00 0.00
20170627000535 87 135 6.0 9.0 4.11 0.00 0.00
20170627000035 87 122 6.0 8.0 4.11 0.00 0.00
20170626235535 87 135 6.0 8.0 4.11 0.00 0.00
20170626235035 88 143 6.0 9.0 4.11 0.00 0.00
20170626234535 88 115 6.0 9.0 4.11 0.00 0.00
20170626234035 88 152 5.0 8.0 4.11 0.00 0.00
20170626233535 90 146 5.0 8.0 4.11 0.00 0.00
20170626233035 91 146 4.0 6.0 4.11 0.00 0.00
20170626232535 92 156 4.0 8.0 4.11 0.00 0.00
20170626232035 93 131 4.0 7.0 4.11 0.00 0.00
20170626231535 94 158 2.0 7.0 4.11 0.00 0.00
20170626231037 98 204 2.0 4.0 4.11 0.00 0.00
20170626230535 93 160 3.0 7.0 4.11 0.00 0.00
20170626230035 95 190 2.0 8.0 4.11 0.00 0.00
20170626225535 95 212 3.0 6.0 4.11 0.00 0.00
20170626225035 92 149 6.0 9.0 4.11 0.00 0.00
20170626224543 93 156 4.0 10.0 4.11 0.00 0.00
20170626224035 94 180 3.0 7.0 4.11 0.00 0.00
20170626223535 100 208 1.0 4.0 4.11 0.00 0.00
20170626223035 96 115 1.0 3.0 4.11 0.00 0.00
20170626222534 94 132 2.0 5.0 4.11 0.00 0.00
20170626222045 94 136 3.0 10.0 4.11 0.00 0.00
20170626221536 93 155 3.0 6.0 4.11 0.00 0.00
20170626221034 92 155 5.0 7.0 4.11 0.00 0.00
20170626220534 91 141 5.0 9.0 4.11 0.00 0.00
20170626220034 95 160 3.0 8.0 4.11 0.00 0.00
20170626215534 93 152 3.0 7.0 4.11 0.00 0.00
20170626215034 92 152 4.0 7.0 4.11 0.00 0.00
20170626214546 91 148 5.0 8.0 4.11 0.00 0.00
20170626214037 92 156 4.0 7.0 4.11 0.00 0.00
20170626213540 100 131 1.0 5.0 4.11 0.00 0.00
20170626213049 94 139 4.0 6.0 4.11 0.00 0.00
20170626212534 92 148 6.0 9.0 4.11 0.00 0.00
20170626212034 93 114 4.0 7.0 4.11 0.00 0.00
20170626211534 93 139 3.0 8.0 4.11 0.00 0.00
20170626211034 100 138 1.0 5.0 4.11 0.00 0.00
20170626210536 98 170 3.0 7.0 4.11 0.00 0.00
20170626210034 97 174 3.0 8.0 4.11 0.00 0.00
20170626205534 97 217 3.0 7.0 4.11 0.00 0.00
20170626205034 97 162 2.0 7.0 4.11 0.00 0.00
20170626204534 97 224 4.0 6.0 4.11 0.00 0.00
20170626204034 95 136 3.0 6.0 4.11 0.00 0.00
20170626203536 93 204 5.0 8.0 4.11 0.00 0.00
20170626203034 103 221 1.0 7.0 4.11 0.00 0.00
20170626202534 95 162 3.0 6.0 4.11 0.00 0.00
20170626202034 94 139 3.0 7.0 4.11 0.00 0.00
20170626201535 90 143 6.0 11.0 4.11 0.00 0.00
20170626201036 93 141 5.0 9.0 4.11 0.00 0.00
20170626200536 95 163 3.0 8.0 4.11 0.00 0.00
20170626200037 93 152 4.0 8.0 4.11 0.00 0.00
20170626195536 99 207 2.0 7.0 4.11 0.00 0.00
20170626195036 98 252 2.0 6.0 4.11 0.00 0.00
20170626194537 93 194 5.0 7.0 4.11 0.00 0.00
20170626194036 94 246 4.0 7.0 4.11 0.00 0.00
20170626193536 93 152 4.0 9.0 4.11 0.00 0.00
20170626193036 96 183 3.0 7.0 4.11 0.00 0.00
20170626192536 94 167 4.0 8.0 4.11 0.00 0.00
20170626192036 93 179 4.0 8.0 4.11 0.00 0.00
20170626191536 92 215 5.0 10.0 4.11 0.00 0.00
20170626191036 92 122 6.0 11.0 4.11 0.00 0.00
20170626190536 88 132 6.0 8.0 4.11 0.00 0.00
20170626190036 87 204 6.0 10.0 4.11 0.00 0.00
20170626185537 91 156 3.0 9.0 4.11 0.00 0.00
20170626185052 93 218 4.0 9.0 4.11 0.00 0.00
20170626184539 89 139 6.0 12.0 4.11 0.00 0.00
20170626184036 90 173 5.0 9.0 4.11 0.00 0.00
20170626183541 89 194 7.0 11.0 4.11 0.00 0.00
20170626183036 94 128 3.0 8.0 4.11 0.00 0.00
20170626182541 92 203 6.0 10.0 4.11 0.00 0.00
20170626182036 88 181 8.0 11.0 4.11 0.00 0.00
20170626181537 92 198 4.0 9.0 4.11 0.00 0.00
20170626181040 90 162 5.0 10.0 4.11 0.00 0.00
20170626180536 90 219 6.0 10.0 4.11 0.00 0.00
20170626180036 90 190 4.0 8.0 4.11 0.00 0.00
20170626175536 88 173 5.0 9.0 4.11 0.00 0.00
20170626175039 87 138 7.0 11.0 4.11 0.00 0.00
20170626174543 88 198 7.0 10.0 4.11 0.00 0.00
20170626174036 89 191 6.0 12.0 4.11 0.00 0.00
20170626173538 88 212 6.0 11.0 4.11 0.00 0.00
20170626173037 88 183 6.0 11.0 4.11 0.00 0.00
20170626172542 87 155 6.0 9.0 4.11 0.00 0.00
20170626172040 88 128 6.0 10.0 4.11 0.00 0.00
20170626171537 88 190 6.0 9.0 4.11 0.00 0.00
20170626171036 88 142 6.0 10.0 4.11 0.00 0.00
20170626170536 87 169 6.0 10.0 4.11 0.00 0.00
20170626170040 88 179 6.0 9.0 4.11 0.00 0.00
20170626165537 88 215 6.0 10.0 4.11 0.00 0.00
20170626165038 87 129 6.0 10.0 4.11 0.00 0.00
20170626164546 90 224 4.0 9.0 4.11 0.00 0.00
20170626163552 86 163 6.0 10.0 4.11 0.00 0.00
20170626163047 88 225 5.0 9.0 4.11 0.00 0.00
20170626162536 88 156 6.0 10.0 4.11 0.00 0.00
20170626162037 89 228 5.0 9.0 4.11 0.00 0.00
20170626161536 86 200 6.0 10.0 4.11 0.00 0.00
20170626161039 86 197 5.0 10.0 4.11 0.00 0.00
20170626160538 87 215 5.0 10.0 4.11 0.00 0.00
20170626160036 89 197 4.0 9.0 4.11 0.00 0.00
20170626155039 87 190 5.0 9.0 4.11 0.00 0.00
20170626154537 87 212 6.0 8.0 4.11 0.00 0.00
20170626154036 87 203 4.0 8.0 4.11 0.00 0.00
20170626153536 85 191 4.0 8.0 4.11 0.00 0.00
20170626153037 86 194 3.0 7.0 4.11 0.00 0.00
20170626152538 87 194 3.0 7.0 4.11 0.00 0.00
20170626152038 85 183 5.0 7.0 4.11 0.00 0.00
20170626151536 88 184 4.0 7.0 4.11 0.00 0.00
20170626151036 87 187 4.0 8.0 4.11 0.00 0.00
20170626150536 87 201 4.0 8.0 4.11 0.00 0.00
20170626150038 85 208 4.0 6.0 4.11 0.00 0.00
20170626145536 85 186 4.0 9.0 4.11 0.00 0.00
20170626145036 81 187 5.0 8.0 4.11 0.00 0.00
20170626144540 83 165 5.0 8.0 4.11 0.00 0.00
20170626144036 85 173 4.0 6.0 4.11 0.00 0.00
20170626143538 81 153 4.0 7.0 4.11 0.00 0.00
20170626143046 80 155 4.0 7.0 4.11 0.00 0.00
20170626142536 82 153 3.0 6.0 4.11 0.00 0.00
20170626142036 78 150 4.0 6.0 4.11 0.00 0.00
20170626141540 79 156 4.0 7.0 4.11 0.00 0.00
20170626141038 81 177 3.0 6.0 4.11 0.00 0.00
20170626140536 80 167 3.0 5.0 4.11 0.00 0.00
20170626140040 80 180 3.0 6.0 4.11 0.00 0.00
20170626135536 80 139 2.0 5.0 4.11 0.00 0.00
20170626135039 78 148 3.0 5.0 4.11 0.00 0.00
20170626134536 79 143 2.0 5.0 4.11 0.00 0.00
20170626134036 81 141 1.0 3.0 4.11 0.00 0.00
20170626133538 78 190 2.0 4.0 4.11 0.00 0.00
20170626133038 79 136 1.0 4.0 4.11 0.00 0.00
20170626132542 80 153 1.0 3.0 4.11 0.00 0.00
20170626132036 80 0 0.0 0.0 4.11 0.00 0.00
20170626131540 80 0 0.0 0.0 4.11 0.00 0.00
20170626131035 76 0 0.0 0.0 4.11 0.00 0.00
20170626130539 76 0 0.0 0.0 4.11 0.00 0.00
20170626130045 76 148 0.0 1.0 4.11 0.00 0.00
20170626125536 76 0 0.0 0.0 4.11 0.00 0.00
20170626125051 77 0 0.0 0.0 4.11 0.00 0.00
20170626124540 78 0 0.0 0.0 4.11 0.00 0.00
20170626124052 75 0 0.0 0.0 4.11 0.00 0.00
20170626123535 74 0 0.0 0.0 4.11 0.00 0.00
20170626123042 72 0 0.0 0.0 4.11 0.00 0.00
20170626122535 72 0 0.0 0.0 4.11 0.00 0.00